[[{"header":{"parameterUnit":"m.s-1","parameterCategory":1,"la1":30.2991,"la2":30.254,"lo1":-89.0895,"lo2":-89.0444,"dy":0.0017,"dx":0.0017,"nx":28,"ny":28,"refTime":"2025-02-08T03:00:00:Z","depth":0,"parameterNumber":2,"parameterNumberName":"U-component_of_WINDS"},"data":[0,0,0,0,0,0,0,0,0,0,0,0,0,0,0,0,0,0,0,0,0,0,0,0,0,0,0,0,0,0,0,0,0,0,0,0,0,0,0,0,0,0,0,0,0,0,0,0,0,0,0,0,0,0,0,0,0,0,-1.2856,-1.2856,0,-1.2903,-1.2903,-1.2904,-1.2901,-1.29,-1.2899,-1.2899,-1.2947,-1.2949,-1.2951,0,0,0,0,0,0,0,0,0,0,0,0,0,-1.2764,-1.2766,-1.2856,-1.2856,-1.2857,-1.2902,-1.2903,-1.2904,-1.2901,-1.29,-1.2899,-1.2898,-1.2946,-1.2949,-1.2951,0,0,0,0,0,0,0,0,0,0,0,0,0,-1.2807,-1.2767,-1.2855,-1.2861,-1.2862,-1.2902,-1.2903,-1.2904,-1.2901,-1.29,-1.2899,-1.2898,-1.2946,-1.2949,-1.2951,-1.299,0,0,-1.296,-1.2961,0,0,0,0,0,0,0,0,-1.2805,-1.281,-1.2859,-1.2861,-1.2862,-1.2895,-1.2889,-1.2933,-1.2901,-1.2886,-1.2899,-1.2898,-1.2931,-1.2935,-1.2946,-1.2992,-1.2994,-1.296,-1.2962,-1.2963,-1.2964,0,0,0,0,0,0,0,-1.2802,-1.2808,-1.2874,-1.286,-1.2862,-1.2861,-1.2866,-1.2897,-1.2914,-1.2887,-1.2887,-1.2893,-1.2931,-1.2943,-1.2947,-1.2995,-1.296,-1.2963,-1.2965,-1.2966,-1.3075,-1.3076,0,0,0,0,0,0,-1.2797,-1.2806,-1.2873,-1.2876,-1.283,-1.2864,-1.2869,-1.2885,-1.2913,-1.2916,-1.2894,-1.2893,-1.2938,-1.2943,-1.2948,-1.2995,-1.2963,-1.2966,-1.2968,-1.3074,-1.3075,-1.3076,0,0,0,0,0,0,-1.2795,-1.2803,-1.2871,-1.2841,-1.2849,-1.2866,-1.2884,-1.2887,-1.2898,-1.2918,-1.2921,-1.2903,-1.2938,-1.2944,-1.2979,-1.2996,-1.2967,-1.297,-1.3072,-1.3074,-1.3076,-1.3088,0,0,0,0,0,0,-1.2793,-1.2803,-1.2817,-1.2841,-1.2851,-1.2901,-1.2885,-1.2888,-1.2903,-1.2902,-1.2927,-1.293,-1.2938,-1.2975,-1.2982,-1.3,-1.2972,-1.3071,-1.3073,-1.3075,-1.3086,-1.309,-1.3093,0,0,0,0,0,-1.279,-1.2819,-1.2818,-1.2826,-1.2869,-1.2902,-1.2907,-1.2915,-1.2905,-1.292,-1.2932,-1.293,-1.2994,-1.2979,-1.2987,-1.3005,-1.307,-1.3073,-1.3075,-1.3084,-1.3089,-1.3093,0,0,0,0,0,0,-1.2796,-1.2822,-1.2821,-1.2859,-1.2878,-1.2901,-1.292,-1.2919,-1.2942,-1.294,-1.2949,-1.2954,-1.2989,-1.3001,-1.2984,-1.3044,-1.3031,-1.3035,-1.3035,-1.3039,-1.3043,-1.3039,-1.2975,0,0,0,0,0,-1.2802,-1.2826,-1.2847,-1.2878,-1.2888,-1.2902,-1.2917,-1.2921,-1.2941,-1.2949,-1.2965,-1.2985,-1.3009,-1.3025,-1.3049,-1.3088,-1.3093,-1.3105,-1.3109,-1.3111,-1.3115,-1.3136,-1.3141,-1.3085,-1.3085,-1.3085,0,0,-1.2814,-1.2831,-1.2846,-1.288,-1.2896,-1.292,-1.2909,-1.2936,-1.2954,-1.2954,-1.2987,-1.2999,-1.3022,-1.3059,-1.3077,-1.307,-1.3132,-1.3115,-1.3117,-1.3119,-1.3139,-1.3145,-1.3149,-1.3087,-1.3087,-1.3086,0,0,-1.2849,-1.2864,-1.2892,-1.2908,-1.2931,-1.2941,-1.2947,-1.2971,-1.2979,-1.3013,-1.3013,-1.3035,-1.3078,-1.3094,-1.3108,-1.315,-1.3148,-1.3157,-1.3175,-1.3196,-1.32,-1.3204,-1.3218,-1.3224,-1.3161,-1.3161,-1.3161,0,-1.2861,-1.2898,-1.2906,-1.2933,-1.2948,-1.2949,-1.2977,-1.2992,-1.3022,-1.3033,-1.3025,-1.3079,-1.3094,-1.3135,-1.3145,-1.3157,-1.3165,-1.3154,-1.3199,-1.3203,-1.3207,-1.3221,-1.3226,-1.3162,-1.3162,-1.3161,-1.3161,0,-1.2911,-1.2937,-1.2957,-1.2985,-1.3003,-1.303,-1.3043,-1.306,-1.3063,-1.3073,-1.3108,-1.3127,-1.3155,-1.3165,-1.3169,-1.3207,-1.3202,-1.3197,-1.3183,-1.3213,-1.3226,-1.3231,-1.3163,-1.3163,-1.3162,-1.3162,0,0,-1.295,-1.2983,-1.299,-1.3003,-1.303,-1.305,-1.3078,-1.3105,-1.3119,-1.314,-1.3164,-1.32,-1.3195,-1.3211,-1.3217,-1.3235,-1.3267,-1.3228,-1.3228,-1.3233,-1.3309,-1.3312,-1.3318,-1.3266,-1.3267,-1.3268,-1.3307,0,-1.2986,-1.3034,-1.3043,-1.3086,-1.3109,-1.3111,-1.3136,-1.3155,-1.3165,-1.3188,-1.32,-1.3225,-1.3218,-1.3227,-1.3246,-1.3259,-1.3282,-1.3256,-1.3288,-1.3289,-1.328,-1.3325,-1.3328,-1.3363,-1.3312,-1.3313,-1.3314,0,-1.3035,-1.3057,-1.3101,-1.3125,-1.3135,-1.3157,-1.3182,-1.3204,-1.3226,-1.3232,-1.325,-1.3254,-1.3283,-1.3269,-1.331,-1.3292,-1.3306,-1.3315,-1.3316,-1.3318,-1.3302,-1.3327,-1.3375,-1.338,-1.3322,-1.3321,-1.3321,0,-1.3057,-1.3098,-1.313,-1.3142,-1.317,-1.3185,-1.3198,-1.3219,-1.3235,-1.3258,-1.3268,-1.3294,-1.3308,-1.3328,-1.3339,-1.3328,-1.3378,-1.3365,-1.3384,-1.3384,-1.3393,-1.3392,-1.3443,-1.3404,-1.3404,-1.3404,-1.3404,0,-1.3096,-1.3123,-1.3141,-1.316,-1.3191,-1.3201,-1.3231,-1.3244,-1.3263,-1.3285,-1.3289,-1.331,-1.3323,-1.3346,-1.3355,-1.3387,-1.3393,-1.3399,-1.3401,-1.3398,-1.3397,-1.3406,-1.3403,-1.3406,-1.3405,-1.3405,-1.3405,0,-1.3125,-1.3138,-1.3173,-1.3198,-1.3204,-1.3226,-1.3247,-1.3266,-1.3277,-1.3306,-1.3313,-1.3331,-1.3358,-1.3371,-1.3405,-1.3411,-1.3447,-1.3448,-1.3439,-1.3439,-1.3457,-1.3455,-1.3514,-1.3522,-1.3479,-1.348,-1.348,0,-1.3148,-1.3169,-1.3196,-1.3211,-1.3224,-1.3248,-1.3264,-1.3276,-1.3293,-1.332,-1.3336,-1.3363,-1.3386,-1.3429,-1.3445,-1.3472,-1.3472,-1.3491,-1.3476,-1.3473,-1.3471,-1.3469,-1.3471,-1.3494,-1.3494,-1.3494,-1.3495,0,-1.3188,-1.3193,-1.3216,-1.3242,-1.3261,-1.3282,-1.3302,-1.3314,-1.3329,-1.3348,-1.3376,-1.3393,-1.3428,-1.3455,-1.3483,-1.3496,-1.3498,-1.35,-1.3505,-1.3501,-1.3495,-1.3498,-1.3445,-1.3498,-1.3497,-1.3497,-1.3497,-1.3497,-1.3214,-1.3232,-1.3254,-1.328,-1.3296,-1.3316,-1.3335,-1.3349,-1.3372,-1.3401,-1.3407,-1.3436,-1.3459,-1.3496,-1.351,-1.3534,-1.3529,-1.3538,-1.3539,-1.3541,-1.3541,-1.3493,-1.3539,-1.3539,-1.3539,-1.3539,-1.3539,0,-1.3253,-1.3267,-1.3291,-1.3319,-1.3339,-1.334,-1.3362,-1.3379,-1.3405,-1.3426,-1.3448,-1.348,-1.3507,-1.3525,-1.3553,-1.3568,-1.3569,-1.3574,-1.3573,-1.3576,-1.3544,-1.3536,-1.3573,-1.3573,-1.3573,-1.3573,-1.3573,-1.3573,-1.3275,-1.3306,-1.3315,-1.3354,-1.3369,-1.3397,-1.341,-1.3428,-1.3445,-1.348,-1.3502,-1.3514,-1.3534,-1.3563,-1.3588,-1.3593,-1.3602,-1.3607,-1.3612,-1.3582,-1.3578,-1.3574,-1.3567,-1.3609,-1.3609,-1.3641,-1.3642,-1.3642]},{"header":{"parameterUnit":"m.s-1","parameterCategory":1,"la1":30.2991,"la2":30.254,"lo1":-89.0895,"lo2":-89.0444,"dy":0.0017,"dx":0.0017,"nx":28,"ny":28,"refTime":"2025-02-08T03:00:00:Z","depth":0,"parameterNumber":3,"parameterNumberName":"V-component_of_WINDS"},"data":[0,0,0,0,0,0,0,0,0,0,0,0,0,0,0,0,0,0,0,0,0,0,0,0,0,0,0,0,0,0,0,0,0,0,0,0,0,0,0,0,0,0,0,0,0,0,0,0,0,0,0,0,0,0,0,0,0,0,2.5982,2.5983,0,2.6025,2.6026,2.6026,2.6024,2.6023,2.6023,2.6022,2.6066,2.6068,2.607,0,0,0,0,0,0,0,0,0,0,0,0,0,2.5899,2.5901,2.5982,2.5983,2.5983,2.6025,2.6026,2.6026,2.6024,2.6023,2.6023,2.6022,2.6066,2.6068,2.607,0,0,0,0,0,0,0,0,0,0,0,0,0,2.5938,2.5901,2.5982,2.5987,2.5988,2.6025,2.6026,2.6026,2.6024,2.6023,2.6022,2.6022,2.6065,2.6067,2.607,2.6105,0,0,2.6078,2.6079,0,0,0,0,0,0,0,0,2.5936,2.5941,2.5986,2.5987,2.5988,2.6018,2.6012,2.6053,2.6025,2.6011,2.6022,2.6021,2.6051,2.6055,2.6065,2.6107,2.6109,2.6078,2.608,2.6081,2.6082,0,0,0,0,0,0,0,2.5933,2.5939,2.5999,2.5987,2.5988,2.5988,2.5992,2.602,2.6035,2.6012,2.6012,2.6017,2.6051,2.6062,2.6066,2.6109,2.6078,2.6081,2.6082,2.6083,2.6183,2.6185,0,0,0,0,0,0,2.5929,2.5937,2.5998,2.6001,2.5959,2.599,2.5995,2.601,2.6035,2.6038,2.6018,2.6017,2.6058,2.6063,2.6067,2.6111,2.6081,2.6083,2.6085,2.6182,2.6184,2.6185,0,0,0,0,0,0,2.5927,2.5935,2.5996,2.5969,2.5977,2.5992,2.6009,2.6011,2.6022,2.604,2.6042,2.6026,2.6058,2.6064,2.6096,2.6113,2.6085,2.6087,2.6181,2.6183,2.6184,2.6198,0,0,0,0,0,0,2.5925,2.5934,2.5947,2.5969,2.5978,2.6024,2.601,2.6012,2.6026,2.6025,2.6048,2.6051,2.6057,2.6092,2.6098,2.6116,2.6089,2.618,2.6182,2.6184,2.6196,2.62,2.6203,0,0,0,0,0,2.5922,2.5949,2.5948,2.5955,2.5995,2.6025,2.603,2.6037,2.6028,2.6041,2.6053,2.605,2.6109,2.6095,2.6102,2.6121,2.6179,2.6181,2.6184,2.6195,2.6199,2.6203,0,0,0,0,0,0,2.5928,2.5952,2.5951,2.5986,2.6003,2.6024,2.6042,2.6041,2.6062,2.606,2.6068,2.6073,2.6106,2.6116,2.61,2.6156,2.6143,2.6147,2.6149,2.6153,2.6157,2.6154,2.6091,0,0,0,0,0,2.5933,2.5956,2.5975,2.6004,2.6013,2.6026,2.6039,2.6043,2.6062,2.6069,2.6083,2.6101,2.6124,2.6139,2.6161,2.6197,2.6203,2.6213,2.6217,2.622,2.6224,2.6245,2.6251,2.6193,2.6193,2.6193,0,0,2.5945,2.5961,2.5974,2.6006,2.602,2.6043,2.6032,2.6057,2.6075,2.6073,2.6105,2.6115,2.6136,2.6171,2.6187,2.6181,2.6241,2.6223,2.6225,2.6227,2.6249,2.6254,2.6259,2.6195,2.6194,2.6194,0,0,2.5978,2.5992,2.6018,2.6033,2.6054,2.6063,2.6069,2.6091,2.6098,2.613,2.6129,2.615,2.6189,2.6205,2.6217,2.6257,2.6256,2.6264,2.6283,2.6304,2.6309,2.6313,2.6329,2.6334,2.6268,2.6268,2.6268,0,2.599,2.6025,2.6031,2.6057,2.6072,2.6071,2.6098,2.6112,2.614,2.615,2.6142,2.6192,2.6206,2.6245,2.6255,2.6265,2.6273,2.6262,2.6308,2.6312,2.6316,2.6331,2.6337,2.6269,2.6268,2.6268,2.6268,0,2.6039,2.6064,2.6082,2.611,2.6126,2.6152,2.6163,2.6179,2.6182,2.6191,2.6224,2.6241,2.6267,2.6276,2.6278,2.6316,2.6312,2.6306,2.6293,2.6322,2.6337,2.6343,2.627,2.627,2.6269,2.6269,0,0,2.6078,2.6109,2.6116,2.613,2.6154,2.6173,2.6199,2.6225,2.6239,2.6258,2.6282,2.6315,2.631,2.6324,2.6328,2.6347,2.638,2.6338,2.6339,2.6347,2.6425,2.6431,2.6437,2.6378,2.6379,2.638,2.6423,0,2.6115,2.6163,2.617,2.6212,2.6236,2.6236,2.6259,2.6276,2.6286,2.6308,2.6318,2.6342,2.6332,2.6342,2.636,2.6372,2.6396,2.6368,2.6401,2.6403,2.6398,2.6445,2.6451,2.6491,2.6429,2.643,2.6431,0,2.6165,2.6187,2.6232,2.6254,2.6264,2.6285,2.631,2.633,2.635,2.6356,2.6373,2.6375,2.6403,2.6387,2.6427,2.6409,2.6422,2.643,2.6432,2.6437,2.642,2.6452,2.6503,2.651,2.6439,2.6439,2.6438,0,2.6192,2.6232,2.6264,2.6275,2.6301,2.6316,2.6328,2.6347,2.6363,2.6384,2.6395,2.6419,2.6432,2.6451,2.646,2.6448,2.65,2.6485,2.6507,2.6507,2.6519,2.6519,2.6575,2.6525,2.6525,2.6525,2.6525,0,2.6234,2.6262,2.6277,2.6297,2.6328,2.6336,2.6367,2.6378,2.6395,2.6418,2.6418,2.644,2.6449,2.6472,2.6479,2.6512,2.6517,2.6524,2.6526,2.6525,2.6524,2.6535,2.6534,2.6526,2.6526,2.6526,2.6525,0,2.627,2.628,2.6316,2.6338,2.6345,2.6367,2.6386,2.6406,2.6415,2.6444,2.6451,2.6466,2.6493,2.6503,2.6536,2.6541,2.658,2.6578,2.6573,2.6574,2.6596,2.6595,2.6663,2.6673,2.6615,2.6615,2.6615,0,2.6297,2.6319,2.6343,2.6359,2.6371,2.6396,2.6412,2.642,2.6437,2.6462,2.6479,2.6506,2.6528,2.6572,2.6586,2.6611,2.6612,2.6634,2.6615,2.6615,2.6614,2.6614,2.6617,2.6638,2.6638,2.6639,2.6639,0,2.6345,2.6349,2.6372,2.6398,2.6417,2.6437,2.6457,2.647,2.6481,2.65,2.6528,2.6545,2.6579,2.6606,2.6633,2.6645,2.6645,2.6645,2.6651,2.6652,2.6649,2.6653,2.6584,2.6643,2.6643,2.6643,2.6642,2.6642,2.6378,2.6398,2.6419,2.6445,2.6461,2.648,2.65,2.6512,2.6536,2.6565,2.6567,2.6598,2.6619,2.6654,2.6667,2.6692,2.6686,2.6695,2.6698,2.6701,2.6704,2.6643,2.6696,2.6696,2.6696,2.6696,2.6696,0,2.6428,2.6441,2.6465,2.6494,2.6514,2.6512,2.6533,2.6551,2.6578,2.6597,2.662,2.6653,2.6679,2.6695,2.6722,2.6739,2.674,2.6746,2.6746,2.6749,2.6706,2.6699,2.6745,2.6745,2.6745,2.6745,2.6745,2.6745,2.6456,2.649,2.6497,2.654,2.6553,2.6583,2.6596,2.6614,2.663,2.6667,2.6689,2.6699,2.6717,2.6746,2.6771,2.6775,2.6786,2.6793,2.6797,2.6757,2.6752,2.6747,2.674,2.6795,2.6795,2.6838,2.6838,2.6839]}]]